GW2349 Weather Reports


time (UTC)temp
F
wind
direction
speed
knots
gust
knots
rain 1hr
in
rain 24hr
in
rain mn
in
humidity
%
barometer
mb
20260508142541 54 225 0.9 6.1 0.00 0.07 0.03 42 1022.1
20260508142045 54 103 0.9 7.8 0.00 0.07 0.03 42 1022.2
20260508141600 54 115 0.9 7.8 0.00 0.07 0.03 42 1022.2
20260508141043 54 0 3.5 7.8 0.00 0.07 0.03 40 1022.2
20260508140542 54 106 0.9 7.8 0.00 0.07 0.03 41 1022.3
20260508135543 54 95 5.2 7.8 0.00 0.07 0.03 38 1022.4
20260508135042 54 103 1.7 7.8 0.00 0.07 0.03 40 1022.4
20260508134551 54 97 1.7 7.8 0.00 0.07 0.03 42 1022.5
20260508134042 54 105 2.6 7.8 0.00 0.07 0.03 41 1022.6
20260508133542 54 86 2.6 7.8 0.00 0.07 0.03 41 1022.7
20260508133045 54 129 0.9 7.8 0.00 0.07 0.03 39 1022.7
20260508132542 55 106 4.3 7.8 0.00 0.07 0.03 40 1022.9
20260508132042 55 111 2.6 7.8 0.00 0.07 0.03 42 1022.8
20260508131545 54 0 1.7 7.8 0.00 0.07 0.03 43 1022.9
20260508131042 54 102 2.6 9.6 0.00 0.07 0.03 42 1022.9
20260508130541 54 130 3.5 9.6 0.00 0.07 0.03 39 1022.9
20260508130050 55 119 4.3 9.6 0.00 0.07 0.03 39 1023.0
20260508125542 55 107 3.5 10.4 0.00 0.07 0.03 41 1022.9
20260508125043 55 97 3.5 10.4 0.00 0.07 0.03 40 1023.0
20260508124548 56 111 2.6 9.6 0.00 0.07 0.03 37 1022.9
20260508124042 57 126 4.3 9.6 0.00 0.07 0.03 38 1023.0
20260508123545 57 97 3.5 7.0 0.00 0.07 0.03 39 1023.0
20260508123052 57 105 0.9 6.1 0.00 0.07 0.03 47 1022.9
20260508122542 57 0 0.9 7.0 0.00 0.07 0.03 47 1022.9
20260508122043 56 20 0.0 7.8 0.00 0.07 0.03 48 1022.9
20260508121550 56 98 2.6 7.8 0.00 0.07 0.03 49 1022.8
20260508121041 56 317 2.6 12.2 0.00 0.07 0.03 53 1022.8
20260508120541 56 49 5.2 12.2 0.00 0.07 0.03 51 1022.9
20260508120053 56 310 1.7 5.2 0.00 0.07 0.03 48 1022.9
20260508115542 57 0 0.9 7.0 0.00 0.07 0.03 49 1023.0
20260508115041 57 279 1.7 7.0 0.00 0.07 0.03 50 1022.8
20260508114603 57 109 1.7 5.2 0.00 0.07 0.03 47 1022.9
20260508114042 57 338 0.0 3.5 0.00 0.07 0.03 54 1022.9
20260508113542 56 0 0.9 6.1 0.00 0.07 0.03 51 1022.9
20260508113121 55 199 1.7 6.1 0.00 0.07 0.03 48 1022.8
20260508112545 55 88 0.9 5.2 0.00 0.07 0.03 52 1022.8
20260508112041 54 51 0.9 5.2 0.00 0.07 0.03 50 1022.7
20260508111550 54 140 0.9 4.3 0.00 0.07 0.03 48 1022.8
20260508111043 53 124 0.0 7.8 0.00 0.07 0.03 53 1022.8
20260508110542 53 144 1.7 7.8 0.00 0.07 0.03 48 1022.8
20260508110049 53 97 2.6 7.8 0.00 0.07 0.03 51 1022.8
20260508105542 53 0 1.7 7.8 0.00 0.07 0.03 58 1022.8
20260508105042 52 284 0.9 7.8 0.00 0.07 0.03 59 1022.9
20260508104557 53 284 3.5 9.6 0.00 0.07 0.03 58 1022.7
20260508104042 53 333 4.3 9.6 0.00 0.07 0.03 59 1022.8
20260508103542 53 310 4.3 9.6 0.00 0.07 0.03 59 1022.9
20260508103103 53 311 3.5 7.8 0.00 0.07 0.03 61 1023.0
20260508102541 53 28 1.7 8.7 0.00 0.07 0.03 63 1023.0
20260508102042 52 5 2.6 8.7 0.00 0.07 0.03 63 1023.0
20260508101551 52 317 3.5 8.7 0.00 0.07 0.03 64 1023.1
20260508101042 52 317 3.5 7.8 0.00 0.07 0.03 65 1023.0
20260508100541 51 310 3.5 7.8 0.00 0.07 0.03 65 1023.1
20260508100047 50 0 0.9 7.0 0.00 0.07 0.03 66 1023.1
20260508095543 49 301 2.6 7.0 0.00 0.07 0.03 66 1023.2
20260508095043 49 306 3.5 7.8 0.00 0.07 0.03 66 1023.2
20260508094549 48 339 3.5 7.8 0.00 0.07 0.03 66 1023.2
20260508094042 47 298 0.0 3.5 0.00 0.07 0.03 63 1023.4
20260508093545 47 0 0.0 5.2 0.00 0.07 0.03 60 1023.3
20260508093052 47 135 1.7 5.2 0.00 0.07 0.03 59 1023.4
20260508092542 47 125 2.6 5.2 0.00 0.07 0.03 61 1023.4
20260508092042 46 180 0.0 5.2 0.00 0.07 0.03 62 1023.4
20260508091549 46 181 1.7 5.2 0.00 0.07 0.03 61 1023.3
20260508091042 46 258 1.7 4.3 0.00 0.07 0.03 63 1023.3
20260508090542 46 251 0.9 3.5 0.00 0.07 0.03 60 1023.2
20260508090051 47 151 1.7 3.5 0.00 0.07 0.03 59 1023.1
20260508085543 47 228 1.7 6.1 0.00 0.09 0.03 61 1023.1
20260508085042 47 188 0.9 6.1 0.00 0.09 0.03 62 1023.2
20260508084552 48 165 2.6 6.1 0.00 0.09 0.03 64 1023.2
20260508084042 47 341 1.7 6.1 0.00 0.09 0.03 68 1023.1
20260508083543 47 0 3.5 6.1 0.00 0.09 0.03 67 1023.1
20260508083048 47 102 1.7 6.1 0.00 0.09 0.03 70 1023.2
20260508082542 46 98 1.7 6.1 0.00 0.09 0.03 72 1023.2
20260508082043 46 95 0.9 6.1 0.00 0.09 0.03 73 1023.1
20260508081556 45 91 0.0 6.1 0.00 0.09 0.03 74 1023.1
20260508081042 45 91 1.7 6.1 0.00 0.09 0.03 74 1023.2
20260508080542 45 98 0.0 6.1 0.00 0.09 0.03 76 1023.1
20260508080049 44 106 1.7 6.1 0.00 0.09 0.03 75 1023.1
20260508075542 44 82 0.9 6.1 0.00 0.09 0.03 77 1023.1
20260508075042 43 106 0.0 5.2 0.00 0.09 0.03 79 1023.1
20260508074544 43 103 0.0 1.7 0.00 0.09 0.03 79 1023.0
20260508074042 43 0 0.0 5.2 0.00 0.09 0.03 81 1023.0
20260508073542 42 0 1.7 5.2 0.00 0.09 0.03 80 1023.0
20260508073048 42 98 0.0 3.5 0.00 0.09 0.03 82 1023.0
20260508072542 41 91 0.0 3.5 0.00 0.09 0.03 82 1023.0
20260508072042 41 0 0.0 1.7 0.00 0.09 0.03 82 1022.9
20260508071550 41 0 0.0 1.7 0.00 0.09 0.03 81 1022.9
20260508071041 40 0 0.0 1.7 0.00 0.09 0.03 81 1023.0
20260508070542 40 0 0.0 1.7 0.00 0.09 0.03 82 1022.8
20260508070054 40 69 0.0 1.7 0.00 0.09 0.03 84 1022.8
20260508065542 40 69 0.0 0.9 0.00 0.11 0.03 84 1022.7
20260508065043 40 0 0.0 0.0 0.00 0.11 0.03 83 1022.7
20260508064606 39 0 0.0 0.0 0.00 0.11 0.03 83 1022.7
20260508064042 39 0 0.0 0.0 0.00 0.11 0.03 84 1022.7
20260508063542 39 0 0.0 0.0 0.00 0.11 0.03 84 1022.7
20260508063048 39 0 0.0 0.0 0.00 0.11 0.03 84 1022.7
20260508062541 39 0 0.0 0.0 0.00 0.11 0.03 84 1022.7
20260508062042 39 0 0.0 0.0 0.00 0.11 0.03 85 1022.7
20260508061559 38 0 0.0 0.0 0.00 0.11 0.03 85 1022.6
20260508061043 38 0 0.0 0.0 0.00 0.11 0.03 85 1022.5
20260508060541 38 0 0.0 0.0 0.00 0.11 0.03 85 1022.5
20260508060050 38 0 0.0 0.0 0.00 0.11 0.03 86 1022.5
20260508055545 38 0 0.0 0.0 0.00 0.11 0.03 86 1022.5
20260508055039 38 0 0.0 0.0 0.00 0.11 0.03 86 1022.5
20260508054612 38 0 0.0 0.0 0.00 0.11 0.03 86 1022.4
20260508054041 38 0 0.0 0.0 0.00 0.11 0.03 87 1022.4
20260508053544 37 0 0.0 0.0 0.00 0.11 0.03 87 1022.4
20260508053056 37 0 0.0 0.0 0.00 0.11 0.03 87 1022.3
20260508052544 37 0 0.0 0.0 0.00 0.11 0.03 87 1022.2
20260508052043 37 0 0.0 0.0 0.00 0.11 0.03 87 1022.2
20260508051549 37 0 0.0 0.0 0.00 0.11 0.03 87 1022.3
20260508051042 37 0 0.0 0.0 0.00 0.11 0.03 88 1022.2
20260508050542 37 0 0.0 0.0 0.00 0.11 0.03 88 1022.2
20260508050054 36 0 0.0 0.0 0.00 0.11 0.03 88 1022.2
20260508045541 36 0 0.0 0.0 0.00 0.11 0.03 87 1022.1
20260508045042 36 0 0.0 0.0 0.00 0.11 0.03 87 1022.0
20260508044552 36 0 0.0 0.0 0.00 0.11 0.03 87 1022.0
20260508044043 36 0 0.0 0.0 0.00 0.11 0.03 86 1021.9
20260508043542 36 0 0.0 0.0 0.00 0.11 0.03 86 1021.9
20260508043058 35 0 0.0 0.0 0.00 0.11 0.03 86 1021.9
20260508042546 35 0 0.0 0.0 0.00 0.11 0.03 86 1021.9
20260508042041 35 0 0.0 0.0 0.00 0.10 0.03 86 1021.8
20260508041555 35 0 0.0 0.0 0.00 0.10 0.03 86 1021.9
20260508041045 35 0 0.0 0.0 0.00 0.10 0.03 86 1021.9
20260508040542 35 0 0.0 0.0 0.00 0.10 0.03 86 1021.8
20260508035546 35 0 0.0 0.0 0.00 0.10 0.03 86 1021.7
20260508035042 35 0 0.0 0.0 0.00 0.10 0.03 86 1021.7
20260508034553 35 0 0.0 0.0 0.00 0.10 0.03 86 1021.7
20260508034041 35 0 0.0 0.0 0.00 0.10 0.03 85 1021.7
20260508033541 34 0 0.0 0.0 0.00 0.10 0.03 85 1021.6
20260508033051 34 0 0.0 0.0 0.01 0.10 0.03 85 1021.6
20260508032542 34 0 0.0 0.0 0.02 0.10 0.03 86 1021.6
20260508032042 34 0 0.0 0.0 0.02 0.10 0.03 86 1021.6
20260508031603 34 0 0.0 0.0 0.02 0.10 0.03 85 1021.6
20260508031042 34 0 0.0 0.0 0.02 0.10 0.03 85 1021.5
20260508030541 34 0 0.0 0.0 0.02 0.10 0.03 85 1021.5
20260508030106 34 0 0.0 0.0 0.02 0.10 0.03 85 1021.4
20260508025543 34 0 0.0 0.0 0.02 0.10 0.03 85 1021.4
20260508025042 34 0 0.0 0.0 0.02 0.10 0.03 85 1021.5
20260508024553 34 0 0.0 0.0 0.02 0.10 0.03 85 1021.4
20260508024042 34 0 0.0 0.9 0.02 0.10 0.03 85 1021.4
20260508023542 34 0 0.0 2.6 0.01 0.09 0.02 85 1021.4
20260508023053 34 0 0.9 2.6 0.00 0.08 0.01 85 1021.4
20260508022541 34 327 0.9 2.6 0.00 0.07 0.00 85 1021.5
20260508022043 34 330 1.7 2.6 0.00 0.07 0.00 85 1021.4
20260508021603 34 0 0.0 0.0 0.00 0.07 0.00 85 1021.4
20260508021042 34 0 0.0 0.0 0.00 0.07 0.00 85 1021.4
20260508020542 34 0 0.0 0.0 0.00 0.07 0.00 85 1021.2
20260508020052 34 0 0.0 0.0 0.00 0.07 0.00 85 1021.3
20260508015542 34 0 0.0 0.0 0.00 0.07 0.00 84 1021.1
20260508015042 34 0 0.0 0.0 0.00 0.07 0.00 84 1021.1
20260508014552 34 0 0.0 0.0 0.00 0.07 0.00 85 1021.0
20260508014042 34 0 0.0 0.0 0.00 0.07 0.00 85 1021.0
20260508013541 34 0 0.0 0.0 0.00 0.07 0.00 85 1021.0
20260508013050 34 0 0.0 0.0 0.00 0.07 0.00 85 1020.8
20260508012541 35 0 0.0 0.0 0.00 0.07 0.00 85 1020.9
20260508012044 35 0 0.0 0.0 0.00 0.07 0.00 85 1020.8
20260508011554 35 0 0.0 0.0 0.00 0.07 0.00 85 1020.8
20260508011043 35 0 0.0 0.0 0.00 0.07 0.00 86 1020.7
20260508010541 35 0 0.0 0.0 0.00 0.07 0.00 85 1020.8
20260508010050 35 0 0.0 0.0 0.00 0.07 0.00 86 1020.7
20260508005543 35 0 0.0 0.0 0.00 0.07 0.00 85 1020.8
20260508005045 35 0 0.0 0.0 0.00 0.07 0.00 85 1020.8
20260508004550 35 0 0.0 0.0 0.00 0.07 0.00 85 1020.7
20260508004042 35 0 0.0 0.0 0.00 0.07 0.00 85 1020.7
20260508003541 35 0 0.0 0.0 0.00 0.07 0.00 85 1020.7
20260508003049 35 0 0.0 0.0 0.00 0.07 0.00 85 1020.5
20260508002541 35 0 0.0 0.0 0.00 0.07 0.00 85 1020.5
20260508002045 35 0 0.0 0.0 0.00 0.07 0.00 85 1020.4
20260508001547 35 0 0.0 0.0 0.00 0.07 0.00 85 1020.5
20260508001043 35 0 0.0 0.0 0.00 0.07 0.00 86 1020.4
20260508000542 35 0 0.0 0.0 0.00 0.07 0.00 86 1020.4
20260508000105 35 0 0.0 0.0 0.00 0.07 0.00 86 1020.4
20260507235544 35 0 0.0 0.0 0.00 0.08 0.00 86 1020.2
20260507235042 35 0 0.0 0.0 0.00 0.08 0.00 86 1020.1
20260507234556 35 0 0.0 5.2 0.00 0.08 0.00 86 1020.1
20260507234043 35 0 0.0 7.8 0.00 0.08 0.00 86 1020.0
20260507233541 35 296 4.3 7.8 0.00 0.08 0.00 86 1020.0
20260507233051 35 327 3.5 9.6 0.00 0.07 0.00 86 1020.0
20260507232541 35 253 3.5 9.6 0.00 0.07 0.00 87 1020.0
20260507232134 35 284 5.2 12.2 0.00 0.07 0.00 87 1020.1
20260507231558 35 234 4.3 12.2 0.00 0.07 0.00 87 1020.0
20260507231041 34 246 6.1 12.2 0.00 0.07 0.00 87 1020.0
20260507230545 34 242 3.5 10.4 0.00 0.07 0.00 87 1020.0
20260507230047 34 212 0.9 10.4 0.00 0.07 0.00 86 1020.1
20260507225541 33 244 1.7 6.1 0.00 0.09 0.00 85 1020.1
20260507225042 33 0 0.0 0.0 0.00 0.09 0.00 82 1019.8
20260507224551 33 0 0.0 0.0 0.00 0.09 0.00 82 1019.7
20260507224041 33 0 0.0 0.0 0.00 0.09 0.00 82 1019.6
20260507223544 33 0 0.0 0.0 0.00 0.09 0.00 82 1019.6
20260507223055 33 0 0.0 0.0 0.00 0.09 0.00 81 1019.5
20260507222541 34 0 0.0 0.0 0.00 0.09 0.00 81 1019.5
20260507222041 34 0 0.0 0.0 0.00 0.09 0.00 81 1019.5
20260507221544 34 0 0.0 0.0 0.00 0.09 0.00 81 1019.5
20260507221041 34 0 0.0 0.0 0.00 0.09 0.00 81 1019.4
20260507220541 34 0 0.0 0.0 0.00 0.09 0.00 81 1019.4
20260507220053 34 0 0.0 0.9 0.00 0.09 0.00 81 1019.3
20260507215542 34 0 0.0 1.7 0.00 0.11 0.09 81 1019.3
20260507215042 34 0 0.0 1.7 0.00 0.11 0.09 82 1019.3
20260507214554 35 0 0.0 1.7 0.00 0.11 0.09 81 1019.2
20260507214041 35 0 0.0 2.6 0.00 0.11 0.09 82 1019.2
20260507213542 35 321 0.0 2.6 0.00 0.11 0.09 82 1019.2
20260507213048 35 321 0.9 2.6 0.00 0.11 0.09 82 1019.1
20260507212544 35 320 0.9 1.7 0.00 0.11 0.09 82 1019.1
20260507212041 35 0 0.0 2.6 0.00 0.11 0.09 82 1019.1
20260507211558 35 0 0.9 2.6 0.00 0.11 0.09 82 1019.1
20260507211041 35 0 0.0 0.9 0.00 0.11 0.09 81 1019.0
20260507210541 35 0 0.0 0.9 0.00 0.11 0.09 81 1019.0
20260507210049 36 0 0.0 0.0 0.00 0.11 0.09 81 1018.9
20260507205541 36 0 0.0 0.0 0.00 0.12 0.09 81 1018.8
20260507205042 36 0 0.0 0.0 0.00 0.12 0.09 81 1018.7
20260507204548 36 0 0.0 0.0 0.00 0.12 0.09 81 1018.7
20260507204041 36 0 0.0 0.0 0.00 0.12 0.09 81 1018.6
20260507203541 36 0 0.0 0.9 0.00 0.12 0.09 81 1018.6
20260507203043 36 0 0.0 0.9 0.00 0.12 0.09 81 1018.5
20260507202543 37 0 0.0 0.9 0.00 0.12 0.09 81 1018.5
20260507202041 37 0 0.0 2.6 0.00 0.12 0.09 81 1018.4
20260507201547 37 0 0.0 2.6 0.00 0.12 0.09 81 1018.3
20260507201042 37 349 0.0 2.6 0.00 0.12 0.09 81 1018.3
20260507200541 37 0 0.0 0.0 0.00 0.12 0.09 81 1018.3
20260507200045 37 0 0.0 0.9 0.00 0.12 0.09 81 1018.3
20260507195541 38 0 0.0 0.9 0.00 0.14 0.09 82 1018.3
20260507195041 38 0 0.0 0.0 0.01 0.14 0.09 82 1018.2
20260507194551 38 0 0.0 0.0 0.02 0.14 0.09 82 1018.1
20260507194042 38 0 0.0 0.0 0.03 0.14 0.09 83 1018.0
20260507193541 38 0 0.0 0.0 0.03 0.14 0.09 83 1018.1
20260507193056 38 0 0.0 0.0 0.03 0.14 0.09 82 1018.0
20260507192541 37 0 0.0 0.0 0.03 0.14 0.09 82 1017.9
20260507192042 37 0 0.0 1.7 0.03 0.14 0.09 82 1017.9
20260507191552 37 0 0.0 2.6 0.03 0.14 0.09 82 1017.8
20260507191042 37 0 0.9 3.5 0.03 0.14 0.09 82 1017.8
20260507190542 37 318 0.9 4.3 0.03 0.14 0.09 81 1017.7
20260507190047 37 310 1.7 6.1 0.03 0.14 0.09 81 1017.8
20260507185541 38 223 2.6 7.8 0.03 0.15 0.09 80 1017.9
20260507185041 38 270 2.6 9.6 0.01 0.14 0.07 80 1017.9
20260507184550 39 275 4.3 11.3 0.00 0.13 0.07 80 1017.9
20260507184041 39 267 6.1 11.3 0.00 0.12 0.06 80 1017.8
20260507183541 39 260 3.5 9.6 0.00 0.12 0.06 79 1017.6
20260507183049 40 250 1.7 4.3 0.00 0.12 0.06 79 1017.4
20260507182541 40 0 0.0 3.5 0.00 0.12 0.06 79 1017.2
20260507182041 40 0 0.0 3.5 0.00 0.12 0.06 79 1017.3
20260507181553 40 0 0.9 3.5 0.00 0.12 0.06 78 1017.2
20260507181041 40 249 0.9 2.6 0.00 0.12 0.06 78 1017.2
20260507180546 40 255 0.0 2.6 0.00 0.12 0.06 79 1017.1
20260507180051 40 256 0.9 6.1 0.00 0.12 0.06 78 1017.1
20260507175543 40 249 1.7 6.1 0.00 0.14 0.06 79 1017.0
20260507175043 40 250 1.7 7.0 0.00 0.14 0.06 79 1017.1
20260507174614 40 242 2.6 8.7 0.00 0.14 0.06 78 1017.2
20260507174042 41 242 4.3 8.7 0.00 0.14 0.06 77 1017.2
20260507173543 41 237 3.5 7.0 0.00 0.14 0.06 76 1017.1
20260507173048 41 242 2.6 6.1 0.00 0.14 0.06 75 1017.0
20260507172543 41 221 1.7 4.3 0.00 0.14 0.06 75 1017.0
20260507172044 41 257 1.7 6.1 0.00 0.14 0.06 75 1017.0
20260507171602 42 254 1.7 6.1 0.00 0.14 0.06 75 1017.0
20260507171043 42 287 2.6 5.2 0.00 0.14 0.06 75 1017.1
20260507170543 42 192 1.7 7.0 0.00 0.14 0.06 74 1017.0
20260507170052 42 194 3.5 7.0 0.00 0.14 0.06 74 1017.0
20260507165546 42 189 1.7 7.8 0.00 0.19 0.06 75 1017.0
20260507165043 42 301 2.6 8.7 0.00 0.19 0.06 75 1016.9
20260507164553 41 257 4.3 8.7 0.00 0.19 0.06 75 1017.0
20260507164043 41 242 2.6 9.6 0.00 0.19 0.06 75 1016.9
20260507163543 41 253 4.3 9.6 0.00 0.19 0.06 75 1016.9
20260507163051 41 316 5.2 9.6 0.00 0.19 0.06 75 1017.0
20260507162543 41 238 0.9 7.8 0.00 0.19 0.06 77 1016.8
20260507162045 41 257 3.5 7.8 0.00 0.19 0.06 77 1016.9
20260507161552 41 217 4.3 7.8 0.00 0.19 0.06 77 1016.7
20260507161042 41 252 4.3 7.0 0.00 0.19 0.06 78 1016.8
20260507160544 40 196 2.6 7.0 0.00 0.19 0.06 78 1016.7
20260507160110 40 240 2.6 7.8 0.00 0.19 0.06 78 1016.8
20260507155542 40 281 3.5 7.8 0.00 0.24 0.06 79 1016.7
20260507155044 40 253 3.5 7.8 0.00 0.24 0.06 78 1016.8
20260507154552 40 268 3.5 7.8 0.00 0.24 0.06 78 1016.7
20260507154044 40 271 1.7 7.8 0.00 0.24 0.06 77 1016.7
20260507153546 40 261 2.6 7.8 0.00 0.24 0.06 77 1016.8
20260507153047 40 257 4.3 8.7 0.00 0.24 0.06 77 1016.7
20260507152553 40 273 3.5 8.7 0.00 0.24 0.06 77 1016.8
20260507152046 40 266 4.3 8.7 0.00 0.24 0.06 76 1016.8
20260507151557 41 216 5.2 10.4 0.00 0.24 0.06 76 1016.9
20260507151043 41 251 6.1 10.4 0.00 0.24 0.06 75 1016.9
20260507150557 42 315 4.3 10.4 0.00 0.24 0.06 76 1016.9
20260507150053 42 262 3.5 13.9 0.00 0.24 0.06 76 1016.7
20260507145547 42 243 7.0 13.9 0.00 0.24 0.06 75 1016.7
20260507145044 42 240 4.3 9.6 0.00 0.24 0.06 74 1016.6
20260507144548 42 306 3.5 8.7 0.00 0.24 0.06 73 1016.4
20260507144043 42 261 3.5 7.8 0.00 0.24 0.06 72 1016.4
20260507143543 42 233 3.5 7.8 0.00 0.24 0.06 71 1016.3
20260507143058 42 267 3.5 10.4 0.00 0.24 0.06 72 1016.4